Location: Tamazert
(32.6352°N, 5.2072°W)
Time: 04:53:01
(UTC+00:00)

Vanguard 2 Rocket - Pass Details

Date: 10 October 2022
Orbit: 555 x 3321 km, 32.9° (Epoch: 05 December)

Event Time Altitude Azimuth Distance (km) Brightness Sun altitude
Rises 03:52:21 0° 280° (W) 4,940 - -31.9°
Reaches altitude 10° 03:57:24 10° 264° (W) 3,370 - -30.9°
Maximum altitude 04:02:17 17° 226° (SW) 2,310 - -29.9°
Drops below altitude 10° 04:05:59 10° 185° (S) 2,421 - -29.1°
Exits shadow 04:07:54 - 169° (S) 2,826 9.4 -28.7°
Sets 04:08:50 0° 164° (SSE) 3,081 9.7 -28.5°
